Volver al catálogo

STARLINK-3202

ActivoComunicacionesVLEO
NORAD 49742·PAYLOAD·🇺🇸 United States

Lanzado Dec 2, 2021 desde Cape Canaveral Space Force Station

Loading…

Próximos Pases (próximas 24 horas)

TLE

ActualizadoSource: CelesTrak SupGP

Época: Sep 14, 2026, 13:30 UTC

1 49742C 21115U   26257.56298611 -.00015513  00000+0 -44403-3 0  2577
2 49742  53.1599   9.2029 0001189  80.3872 100.8874 15.35394141    14

Sigue STARLINK-3202 en tiempo real con AllMySat

Download on the App Store